When you browse on this site, cookies collect data to enhance your experience and personalize the content and advertising you see.
Visit our Privacy Policy to learn more. By continuing to use the site, you agree to this use of cookies and data.
  • în România
  • Lista ţărilor
  • Pe 7 zile
  • Temperatura apei
  • Hartă satelitară
  • Meteo pe hartă
  • Widget-uri
  • user-avatar
    Intrare

    Meteo pe oră la Andora

    Astăzi, 22 Ianuarie, Marţi

    Timp Temperatura Precipitaţii Vânt Presiune Umiditate
    00:00 -10°C° 0 mm 2 m/s 618 mmHg 79%
    01:00 -10°C° 0 mm 2 m/s 618 mmHg 72%
    02:00 -10°C° 0 mm 2 m/s 617 mmHg 66%
    03:00 -10°C° 0 mm 2 m/s 617 mmHg 59%
    04:00 -10°C° 0 mm 2 m/s 617 mmHg 55%
    05:00 -10°C° 0 mm 2 m/s 616 mmHg 51%
    06:00 -10°C° 0 mm 2 m/s 616 mmHg 47%
    07:00 -9°C° 0 mm 2 m/s 616 mmHg 46%
    08:00 -7°C° 0 mm 2 m/s 617 mmHg 45%
    09:00 -6°C° 0 mm 2 m/s 617 mmHg 45%
    10:00 -4°C° 0 mm 2 m/s 617 mmHg 42%
    11:00 -1°C° 0 mm 1 m/s 617 mmHg 39%
    12:00 +1°C° 0 mm 1 m/s 617 mmHg 36%
    13:00 0°C° 0.3 mm 1 m/s 616 mmHg 46%
    14:00 0°C° 0.3 mm 1 m/s 615 mmHg 57%
    15:00 -1°C° 0.3 mm 1 m/s 614 mmHg 68%
    16:00 -4°C° 0.4 mm 2 m/s 614 mmHg 71%
    17:00 -4°C° 0.4 mm 2 m/s 614 mmHg 75%
    18:00 -6°C° 0.4 mm 3 m/s 614 mmHg 78%
    19:00 -7°C° 0 mm 3 m/s 613 mmHg 80%
    20:00 -7°C° 0 mm 2 m/s 612 mmHg 82%
    21:00 -8°C° 0 mm 2 m/s 612 mmHg 84%
    22:00 -8°C° 0.1 mm 2 m/s 612 mmHg 84%
    23:00 -7°C° 0.1 mm 2 m/s 612 mmHg 84%

    Mâine, 23 Ianuarie, Miercuri

    Timp Temperatura Precipitaţii Vânt Presiune Umiditate
    00:00 -6°C° 0.1 mm 1 m/s 612 mmHg 84%
    01:00 -4°C° 0.6 mm 1 m/s 611 mmHg 84%
    02:00 -6°C° 0.6 mm 2 m/s 611 mmHg 85%
    03:00 -5°C° 0.6 mm 2 m/s 611 mmHg 85%
    04:00 -3°C° 0.7 mm 1 m/s 610 mmHg 87%
    05:00 -3°C° 0.7 mm 1 m/s 609 mmHg 89%
    06:00 -4°C° 0.7 mm 1 m/s 608 mmHg 91%
    07:00 -3°C° 1.7 mm 1 m/s 608 mmHg 92%
    08:00 -3°C° 1.7 mm 1 m/s 608 mmHg 93%
    09:00 -3°C° 1.7 mm 1 m/s 608 mmHg 94%
    10:00 -5°C° 1.9 mm 2 m/s 608 mmHg 93%
    11:00 -6°C° 1.9 mm 3 m/s 608 mmHg 93%
    12:00 -7°C° 1.9 mm 4 m/s 608 mmHg 92%
    13:00 -8°C° 1.1 mm 5 m/s 608 mmHg 92%
    14:00 -8°C° 1.1 mm 5 m/s 608 mmHg 92%
    15:00 -10°C° 1.1 mm 6 m/s 608 mmHg 91%
    16:00 -10°C° 1 mm 6 m/s 608 mmHg 92%
    17:00 -11°C° 1 mm 6 m/s 608 mmHg 93%
    18:00 -12°C° 1 mm 7 m/s 608 mmHg 94%
    19:00 -13°C° 0.6 mm 7 m/s 608 mmHg 93%
    20:00 -13°C° 0.6 mm 7 m/s 609 mmHg 92%
    21:00 -14°C° 0.6 mm 7 m/s 609 mmHg 91%
    22:00 -14°C° 0.7 mm 7 m/s 609 mmHg 91%
    23:00 -14°C° 0.7 mm 7 m/s 609 mmHg 91%

    Poimâine, 24 Ianuarie, Joi

    Timp Temperatura Precipitaţii Vânt Presiune Umiditate
    00:00 -15°C° 0.7 mm 8 m/s 610 mmHg 91%
    01:00 -14°C° 0.7 mm 7 m/s 610 mmHg 91%
    02:00 -15°C° 0.7 mm 7 m/s 610 mmHg 91%
    03:00 -15°C° 0.7 mm 6 m/s 610 mmHg 92%
    04:00 -15°C° 0.5 mm 6 m/s 611 mmHg 91%
    05:00 -15°C° 0.5 mm 6 m/s 611 mmHg 90%
    06:00 -15°C° 0.5 mm 7 m/s 612 mmHg 90%
    07:00 -15°C° 0.2 mm 7 m/s 612 mmHg 88%
    08:00 -15°C° 0.2 mm 7 m/s 613 mmHg 86%
    09:00 -14°C° 0.2 mm 7 m/s 613 mmHg 85%
    10:00 -13°C° 0.1 mm 7 m/s 614 mmHg 83%
    11:00 -12°C° 0.1 mm 7 m/s 614 mmHg 82%
    12:00 -11°C° 0.1 mm 7 m/s 615 mmHg 81%
    13:00 -11°C° 0 mm 6 m/s 615 mmHg 80%
    14:00 -11°C° 0 mm 6 m/s 615 mmHg 80%
    15:00 -11°C° 0 mm 6 m/s 616 mmHg 80%
    16:00 -12°C° 0 mm 6 m/s 616 mmHg 82%
    17:00 -13°C° 0 mm 5 m/s 616 mmHg 83%
    18:00 -14°C° 0 mm 5 m/s 616 mmHg 85%
    19:00 -14°C° 0 mm 5 m/s 616 mmHg 85%
    20:00 -15°C° 0 mm 4 m/s 617 mmHg 86%
    21:00 -15°C° 0 mm 4 m/s 617 mmHg 86%
    22:00 -15°C° 0 mm 4 m/s 617 mmHg 85%
    23:00 -15°C° 0 mm 4 m/s 617 mmHg 83%

    25 Ianuarie, Vineri

    Timp Temperatura Precipitaţii Vânt Presiune Umiditate
    00:00 -16°C° 0 mm 4 m/s 617 mmHg 82%
    01:00 -15°C° 0 mm 4 m/s 617 mmHg 79%
    02:00 -15°C° 0 mm 4 m/s 617 mmHg 75%
    03:00 -15°C° 0 mm 4 m/s 617 mmHg 72%
    04:00 -14°C° 0 mm 4 m/s 617 mmHg 72%
    05:00 -12°C° 0 mm 4 m/s 618 mmHg 73%
    06:00 -11°C° 0 mm 4 m/s 618 mmHg 73%
    07:00 -9°C° 0 mm 4 m/s 619 mmHg 76%
    08:00 -7°C° 0 mm 4 m/s 620 mmHg 80%
    09:00 -4°C° 0 mm 4 m/s 621 mmHg 84%
    10:00 -3°C° 0 mm 4 m/s 622 mmHg 85%
    11:00 -2°C° 0 mm 4 m/s 622 mmHg 86%
    12:00 -1°C° 0 mm 4 m/s 622 mmHg 87%
    13:00 -1°C° 0 mm 4 m/s 622 mmHg 87%
    14:00 -1°C° 0 mm 4 m/s 622 mmHg 88%
    15:00 -1°C° 0 mm 4 m/s 622 mmHg 88%
    16:00 -2°C° 0 mm 4 m/s 622 mmHg 89%
    17:00 -3°C° 0 mm 4 m/s 622 mmHg 90%
    18:00 -4°C° 0 mm 4 m/s 622 mmHg 91%
    19:00 -4°C° 0 mm 3 m/s 622 mmHg 91%
    20:00 -4°C° 0 mm 3 m/s 622 mmHg 91%
    21:00 -4°C° 0 mm 3 m/s 622 mmHg 91%
    22:00 -4°C° 0 mm 3 m/s 622 mmHg 91%
    23:00 -5°C° 0 mm 3 m/s 622 mmHg 92%

    26 Ianuarie, Sâmbătă

    Timp Temperatura Precipitaţii Vânt Presiune Umiditate
    00:00 -4°C° 0 mm 2 m/s 622 mmHg 92%
    01:00 -4°C° 0 mm 2 m/s 621 mmHg 91%
    02:00 -5°C° 0 mm 2 m/s 621 mmHg 91%
    03:00 -6°C° 0 mm 2 m/s 621 mmHg 91%
    04:00 -6°C° 0 mm 2 m/s 620 mmHg 90%
    05:00 -6°C° 0 mm 2 m/s 620 mmHg 89%
    06:00 -6°C° 0 mm 2 m/s 620 mmHg 88%
    07:00 -5°C° 0 mm 2 m/s 621 mmHg 87%
    08:00 -3°C° 0 mm 2 m/s 621 mmHg 85%
    09:00 0°C° 0 mm 1 m/s 622 mmHg 84%
    10:00 +1°C° 0 mm 1 m/s 622 mmHg 85%
    11:00 +3°C° 0 mm 1 m/s 622 mmHg 86%
    12:00 +4°C° 0 mm 1 m/s 622 mmHg 88%
    13:00 +4°C° 0 mm 1 m/s 622 mmHg 89%
    14:00 +3°C° 0 mm 1 m/s 621 mmHg 91%
    15:00 +3°C° 0 mm 1 m/s 620 mmHg 93%
    16:00 +2°C° 0 mm 1 m/s 620 mmHg 94%
    17:00 0°C° 0 mm 1 m/s 619 mmHg 95%
    18:00 -1°C° 0 mm 1 m/s 619 mmHg 95%
    19:00 -4°C° 0 mm 2 m/s 618 mmHg 94%
    20:00 -5°C° 0 mm 2 m/s 618 mmHg 93%
    21:00 -6°C° 0 mm 2 m/s 617 mmHg 92%
    22:00 -5°C° 0 mm 2 m/s 617 mmHg 91%
    23:00 -5°C° 0 mm 2 m/s 617 mmHg 90%

    27 Ianuarie, Duminică

    Timp Temperatura Precipitaţii Vânt Presiune Umiditate
    00:00 -5°C° 0 mm 3 m/s 617 mmHg 90%
    01:00 -5°C° 0.1 mm 3 m/s 617 mmHg 90%
    02:00 -7°C° 0.1 mm 4 m/s 617 mmHg 90%
    03:00 -7°C° 0.1 mm 4 m/s 617 mmHg 90%
    04:00 -8°C° 0.1 mm 4 m/s 617 mmHg 89%
    05:00 -8°C° 0.1 mm 4 m/s 617 mmHg 89%
    06:00 -9°C° 0.1 mm 4 m/s 617 mmHg 89%
    07:00 -9°C° 0 mm 4 m/s 618 mmHg 87%
    08:00 -9°C° 0 mm 4 m/s 618 mmHg 86%
    09:00 -8°C° 0 mm 4 m/s 618 mmHg 84%
    10:00 -7°C° 0 mm 4 m/s 619 mmHg 83%
    11:00 -5°C° 0 mm 4 m/s 619 mmHg 81%
    12:00 -4°C° 0 mm 3 m/s 619 mmHg 80%
    13:00 -4°C° 0.1 mm 4 m/s 618 mmHg 80%
    14:00 -4°C° 0.1 mm 4 m/s 618 mmHg 81%
    15:00 -4°C° 0.1 mm 4 m/s 618 mmHg 81%
    16:00 -5°C° 0 mm 3 m/s 617 mmHg 84%
    17:00 -6°C° 0 mm 3 m/s 616 mmHg 88%
    18:00 -6°C° 0 mm 2 m/s 616 mmHg 91%
    19:00 -6°C° 0 mm 2 m/s 615 mmHg 90%
    20:00 -7°C° 0 mm 2 m/s 614 mmHg 90%
    21:00 -7°C° 0 mm 2 m/s 614 mmHg 89%
    22:00 -6°C° 1.5 mm 2 m/s 614 mmHg 91%
    23:00 -5°C° 1.5 mm 2 m/s 614 mmHg 93%
    Arată mai mult